GFSCGP_925_temp_150.txt.gz
Temp
10 10 10 9 11 18 19 19 19 19 17 20 21 20 19 18 19 19 20 20 19 18 18 16 15 14 13 13 13 13 12 12 12 12 12 12 12 11 10 10 10 10 10 10
10 11 11 10 11 14 18 19 19 17 17 21 20 20 19 18 19 20 20 19 19 19 17 16 15 14 13 13 13 12 12 12 12 11 11 11 11 10 10 9 10 10 10 10
11 10 10 12 11 15 18 19 18 18 18 19 21 19 18 18 18 18 19 20 20 19 18 17 15 14 14 13 13 13 12 12 12 11 11 11 11 10 10 10 9 10 10 10
9 10 10 11 10 15 17 19 19 18 20 20 19 21 20 20 19 19 19 19 19 17 18 17 16 15 14 13 13 12 12 12 12 11 11 10 11 12 11 10 9 9 9 9
9 9 10 10 13 16 18 17 19 20 22 20 20 22 23 19 20 20 20 20 20 19 18 17 16 16 14 13 12 12 12 12 11 12 10 10 10 10 10 10 9 9 9 10
11 10 11 13 14 15 15 17 17 18 20 19 19 20 21 20 22 22 22 21 20 19 17 16 16 14 14 12 12 12 11 11 11 11 11 11 10 10 10 10 10 10 9 9
10 12 14 14 15 16 16 18 15 16 17 19 15 18 22 21 19 20 21 21 19 18 17 16 15 14 13 12 12 11 11 11 11 11 11 10 9 10 10 10 10 10 10 9
12 12 14 14 15 17 18 18 17 15 17 18 15 20 23 18 16 16 16 17 16 16 16 15 14 14 12 12 11 11 11 11 10 10 10 10 9 9 10 9 9 9 9 9
12 13 14 13 14 16 17 17 15 16 15 20 18 19 18 15 15 15 15 15 15 15 15 14 13 13 12 12 11 11 11 11 10 11 10 10 10 9 10 9 9 9 8 8
15 14 14 14 14 15 16 15 17 17 17 19 18 19 22 16 16 15 15 16 15 14 14 14 13 12 11 10 10 10 10 11 10 10 10 10 10 10 9 9 9 9 9 8
15 16 15 15 15 17 16 16 15 17 16 21 21 22 19 18 17 16 16 16 15 14 14 13 12 11 11 10 11 10 10 10 10 10 10 10 10 9 9 9 9 9 8 8
14 15 15 15 14 14 15 16 18 19 17 17 18 22 16 16 17 17 16 15 15 14 14 13 12 12 12 11 11 10 10 10 9 9 9 9 9 9 9 9 9 8 8 8
15 15 14 15 14 14 15 14 14 16 17 18 20 21 15 15 15 16 16 15 14 14 13 13 13 13 12 11 11 10 9 9 9 9 9 9 9 9 9 8 8 8 7 8
14 14 16 16 16 16 16 15 15 17 18 18 20 20 17 15 16 16 16 16 15 14 13 13 13 13 11 10 10 10 9 8 8 8 8 8 8 8 8 8 8 8 8 7
14 15 13 13 12 14 15 15 15 16 18 19 19 19 20 18 17 17 16 15 15 14 13 13 13 12 11 10 9 8 8 8 8 8 8 7 7 7 7 7 7 7 7 7
13 14 13 13 13 13 14 15 15 15 15 15 16 17 20 17 18 16 16 15 14 14 13 13 12 11 10 10 9 8 8 7 7 7 7 7 7 7 7 7 7 7 6 6
13 13 13 15 12 13 16 17 15 15 15 18 17 21 17 15 16 16 16 15 14 14 13 12 12 11 10 9 8 8 7 6 7 7 7 7 7 6 7 7 6 6 6 5
13 13 12 14 13 15 17 13 14 16 15 16 15 16 16 16 15 16 16 15 15 14 13 12 11 10 8 8 7 6 6 6 7 7 6 7 7 6 5 5 5 5 5 5
11 13 13 14 15 17 15 13 14 15 18 16 16 17 15 12 13 14 14 15 16 13 13 11 10 9 8 7 6 6 6 6 6 6 6 5 5 5 5 5 4 4 4 4
10 12 14 13 15 17 16 13 12 13 18 14 13 14 14 12 16 19 12 11 11 11 10 9 8 7 7 6 6 6 6 6 6 5 5 5 5 5 4 4 4 3 3 3
12 12 13 14 14 17 15 12 12 17 17 13 11 11 12 13 15 10 11 10 10 9 8 7 7 7 7 6 5 6 6 6 5 6 5 5 5 5 4 3 3 3 3 3
13 13 13 12 13 15 12 11 15 15 12 11 11 10 10 10 8 9 9 8 8 7 6 7 7 6 5 5 5 6 6 6 5 5 5 5 4 3 3 2 3 3 3 3
12 13 15 14 16 13 12 13 12 12 13 12 11 9 10 9 8 8 8 8 7 7 6 6 6 6 5 4 5 6 6 4 4 4 4 4 3 3 3 2 3 3 2 2
9 9 12 12 14 12 13 12 11 11 12 11 10 9 10 10 9 8 7 7 7 6 6 5 5 6 6 4 5 5 5 4 4 3 4 3 3 3 3 3 2 2 2 3
11 9 12 12 13 12 12 11 11 11 9 9 8 8 9 9 8 8 7 7 6 5 4 5 5 5 5 4 4 4 4 4 3 3 3 3 2 2 2 2 2 2 2 2
9 12 14 17 14 15 13 10 9 10 9 9 8 7 7 8 7 7 7 6 5 5 4 4 4 4 4 3 4 4 4 3 2 2 2 2 1 2 2 1 1 1 1 1

GFSCGP_925_temp_153.txt.gz
Temp
11 10 10 12 11 12 9 13 18 21 21 20 21 22 21 21 22 22 22 21 21 20 20 19 18 16 16 16 15 15 14 14 13 14 14 14 14 13 12 11 11 11 10 10
10 11 12 11 9 9 10 12 19 21 20 21 22 22 22 21 22 23 23 22 21 20 19 18 17 16 15 15 15 14 14 13 14 14 13 13 13 12 12 11 10 10 10 10
10 11 12 10 9 10 13 17 20 18 19 22 23 22 21 21 22 23 23 23 22 20 19 18 17 16 15 15 14 14 14 13 13 13 12 12 11 11 11 11 11 10 10 10
10 10 11 11 11 10 16 20 21 20 19 19 23 20 21 21 21 21 22 22 22 21 20 19 18 17 15 15 14 14 13 13 12 12 12 12 13 13 13 12 11 10 10 9
10 10 11 11 12 13 15 19 19 21 21 22 21 21 23 22 20 20 21 21 22 21 20 19 18 17 16 15 14 14 13 12 12 11 12 12 12 12 12 11 11 10 10 9
11 10 10 12 13 15 18 19 19 21 21 19 21 23 24 22 23 22 22 22 22 21 20 20 19 17 16 15 13 13 13 12 12 11 11 11 12 12 11 11 11 11 11 10
11 11 13 13 14 16 17 18 15 16 15 18 21 20 24 24 24 24 23 23 22 22 20 19 18 17 16 14 13 13 13 13 12 12 11 11 11 11 11 11 12 12 12 11
13 13 14 15 17 17 18 18 17 16 17 18 18 20 22 21 21 20 24 23 22 20 20 18 17 16 15 14 13 13 13 14 13 12 12 11 11 10 11 11 11 11 11 11
15 14 16 15 16 17 18 17 17 17 19 20 20 22 19 18 17 18 19 20 19 19 18 17 16 15 14 14 13 13 13 13 13 12 12 12 11 11 11 11 11 10 10 10
16 14 16 16 16 17 18 18 16 17 18 20 20 21 22 18 18 18 17 18 18 18 17 16 15 15 14 13 13 13 13 13 12 12 12 12 12 12 11 11 11 11 11 10
17 17 16 17 16 18 18 18 18 19 19 21 21 22 21 21 20 18 18 18 17 17 16 16 15 14 13 13 13 13 13 12 12 12 12 12 12 11 11 11 11 11 10 10
16 17 16 16 15 15 16 18 19 20 20 20 21 21 19 19 20 19 18 18 17 17 16 15 14 14 14 14 13 13 12 12 11 11 12 11 11 11 11 11 10 10 10 10
16 17 15 16 17 16 17 17 16 19 19 20 20 20 18 18 19 20 18 18 17 16 16 15 15 15 14 14 13 12 12 11 11 11 11 11 11 11 11 10 10 9 9 9
14 16 16 16 16 17 17 17 17 18 19 20 21 21 19 17 18 19 18 18 17 16 16 15 16 15 14 13 12 12 11 11 10 10 11 10 10 10 9 9 9 9 8 8
15 15 14 15 15 15 15 17 17 17 19 19 19 20 21 19 18 18 18 18 17 16 15 15 16 15 13 12 12 11 11 10 10 10 10 9 9 9 9 8 8 8 8 8
15 14 15 14 15 14 14 17 17 17 18 17 19 19 22 21 20 19 19 18 17 16 16 15 15 15 13 12 12 11 10 9 10 10 9 8 8 8 8 8 7 7 7 7
14 15 15 16 14 15 15 18 18 18 17 19 19 21 20 19 19 19 19 18 17 16 16 15 14 13 13 12 11 11 9 9 9 9 8 8 8 8 7 7 7 7 7 7
15 15 13 15 15 15 18 15 16 19 19 19 20 18 19 18 19 19 19 18 17 17 16 15 14 13 12 11 10 9 8 9 9 8 8 7 7 7 7 6 6 6 6 6
14 16 16 15 17 19 18 14 16 17 19 19 18 19 18 16 16 17 18 19 18 17 16 15 14 12 11 10 8 9 8 8 8 8 7 7 6 6 6 6 6 5 5 5
12 14 15 15 16 17 18 15 15 15 19 16 15 16 16 16 17 20 16 17 17 15 15 13 12 11 10 9 8 8 8 8 8 7 6 6 6 5 5 5 5 5 4 4
13 14 14 15 16 18 16 14 14 17 17 15 14 14 14 15 15 13 14 14 14 13 12 10 10 10 10 8 8 8 8 8 6 6 6 5 5 5 4 4 4 4 4 3
15 15 14 16 15 15 14 13 16 16 14 14 14 13 13 14 11 12 12 12 11 10 9 10 9 8 7 7 7 8 8 6 6 5 5 5 5 5 4 4 4 4 4 4
14 16 17 16 18 15 15 15 14 14 15 14 14 12 12 11 11 11 10 10 10 9 9 9 8 7 7 6 7 8 7 6 5 5 5 5 5 5 4 4 4 4 3 3
14 13 14 14 18 16 15 15 14 14 14 13 12 12 12 12 11 10 10 10 9 8 8 8 8 8 7 6 6 6 5 5 5 5 5 5 4 4 4 4 4 3 3 3
13 12 14 15 16 16 15 15 15 14 13 12 11 11 12 12 11 10 9 9 8 8 7 7 8 8 7 6 6 5 5 4 4 4 4 4 4 4 3 3 3 3 3 2
12 14 14 18 17 17 15 13 12 12 11 11 11 10 11 11 10 10 9 8 8 7 6 6 6 6 5 5 5 4 4 4 3 4 3 3 3 2 2 2 2 2 2 2

GFSCGP_925_temp_156.txt.gz
Temp
11 10 10 10 11 11 12 12 12 13 15 13 14 19 19 19 19 20 19 19 19 18 18 19 18 18 17 16 15 15 14 14 13 13 13 13 13 13 12 12 11 11 11 11
10 10 12 12 12 12 11 11 11 13 14 13 16 18 21 19 19 20 20 18 18 18 17 17 17 16 16 16 15 15 14 14 14 14 14 14 13 13 12 11 11 11 11 11
10 11 10 11 10 10 10 10 11 12 14 15 18 18 20 19 20 20 20 19 18 17 17 16 15 16 15 15 15 14 14 14 14 13 13 13 13 12 12 11 11 11 11 11
9 10 10 10 10 9 10 12 12 12 15 14 18 14 17 18 19 20 20 19 18 17 17 16 15 15 15 15 14 14 14 13 13 13 13 12 13 13 13 12 11 11 11 10
10 10 10 11 11 10 11 15 15 14 17 16 17 15 18 18 18 19 18 19 18 17 16 16 15 15 15 15 14 14 14 13 13 13 13 12 12 12 12 11 11 11 10 10
11 10 10 11 13 12 13 15 14 14 16 14 17 18 17 18 19 18 18 18 18 17 16 16 16 16 15 15 14 14 13 13 13 13 13 12 12 12 12 11 11 11 11 11
11 11 12 11 12 14 13 13 12 12 11 13 17 18 19 20 20 19 19 18 17 16 15 15 14 15 15 14 14 13 13 12 12 12 12 12 12 11 11 11 11 11 11 11
12 12 13 14 14 15 14 15 12 13 13 13 16 16 17 17 18 21 20 19 17 16 16 14 13 15 15 14 13 13 13 12 12 12 12 11 11 11 11 11 11 11 11 11
12 13 16 16 16 16 17 13 15 14 15 13 13 17 18 17 16 18 19 18 16 15 14 13 13 15 14 13 13 13 13 13 13 12 12 12 11 11 11 11 11 11 11 10
15 13 16 17 16 17 16 15 14 13 13 15 13 18 13 15 15 17 15 15 14 14 13 12 12 14 14 13 13 13 13 13 13 13 12 12 12 12 11 11 11 11 11 10
15 15 15 16 15 14 16 16 16 15 15 13 15 16 17 15 15 15 15 14 13 13 12 12 11 13 13 13 13 13 13 13 12 12 12 12 12 12 11 11 11 11 10 10
16 14 14 15 16 15 15 16 16 14 15 14 16 15 17 17 15 15 15 15 13 13 12 11 11 12 13 13 13 13 12 12 12 12 12 11 11 11 11 11 11 10 10 9
14 14 12 15 15 15 16 16 16 16 15 16 16 15 16 16 15 16 14 13 13 12 11 11 11 12 13 13 12 12 12 11 11 11 11 11 11 11 11 10 10 9 9 9
13 14 14 12 11 13 16 16 16 16 13 16 16 17 15 16 15 14 14 13 12 12 12 11 10 11 13 13 12 12 11 11 11 11 11 11 10 10 9 9 9 9 9 9
14 13 12 14 15 14 14 16 16 16 16 16 16 16 18 15 15 14 14 13 13 12 11 11 11 10 12 12 12 11 11 10 10 10 10 9 9 9 9 8 8 9 9 8
14 12 14 12 14 14 13 15 16 17 16 16 17 17 17 16 15 15 13 13 13 12 12 12 11 11 11 11 11 11 10 10 10 10 9 9 8 8 8 8 8 8 8 8
14 13 11 13 14 14 13 14 15 16 16 17 17 17 17 16 16 15 14 14 13 12 12 12 11 11 12 12 11 10 10 9 9 9 8 8 8 8 8 8 8 8 7 7
13 13 11 11 13 11 16 14 15 16 17 16 17 17 16 15 15 16 15 13 13 13 12 11 11 12 12 11 10 9 9 9 9 8 8 8 8 7 7 7 7 7 7 6
12 12 12 11 12 15 16 15 15 16 17 16 17 18 15 14 15 15 16 14 13 12 11 12 13 12 11 10 9 8 8 8 8 8 7 7 7 7 7 7 6 6 6 6
12 11 11 12 13 14 16 14 14 15 16 14 14 15 16 14 13 13 15 14 12 13 13 12 12 11 10 9 8 8 8 8 8 7 7 7 7 6 6 6 6 5 5 5
10 11 10 11 12 13 15 13 14 15 15 14 13 13 13 13 10 11 11 10 11 10 11 11 10 10 9 8 8 8 8 7 7 7 7 6 6 6 6 5 5 5 4 4
11 11 10 12 13 11 13 13 15 13 13 13 12 11 12 9 9 9 9 8 7 8 9 10 8 8 8 8 8 7 7 7 6 6 6 6 6 5 5 5 5 4 4 4
10 12 12 13 12 13 12 14 13 12 12 12 11 11 9 8 8 8 7 6 6 8 9 8 7 6 7 7 8 7 6 6 6 6 6 6 5 5 5 4 4 4 4 3
12 12 10 11 15 13 12 13 12 13 11 11 11 10 9 8 8 7 7 6 6 7 8 7 7 6 6 6 7 6 6 6 6 5 5 5 5 4 4 4 3 3 3 3
12 11 11 12 12 14 14 14 11 11 10 9 10 10 9 8 7 7 6 6 6 6 7 7 7 6 6 6 6 6 6 5 5 5 4 4 4 3 3 3 2 2 2 2
9 11 12 13 13 13 11 11 12 11 10 9 8 9 9 8 7 6 5 6 6 6 7 7 6 6 6 5 5 5 5 5 5 4 4 3 3 2 2 2 2 2 1 1

GFSCGP_925_temp_159.txt.gz
Temp
9 9 8 10 9 10 10 10 9 12 15 14 13 13 15 16 16 16 16 16 17 17 16 16 16 16 15 15 15 14 14 14 14 13 13 13 13 12 12 12 12 12 12 12
10 9 11 11 10 10 10 9 9 11 13 13 12 13 14 15 16 16 17 16 15 15 15 15 15 15 15 15 15 14 14 14 14 14 14 13 13 12 12 12 12 12 11 11
10 10 11 11 10 10 11 11 11 11 13 13 13 12 13 15 18 16 17 17 17 16 16 14 14 14 15 15 14 14 14 14 14 14 13 13 13 12 12 11 11 11 11 11
9 9 10 9 9 9 10 12 11 11 11 11 13 12 14 15 18 16 17 17 16 15 15 14 14 13 14 15 15 14 14 14 14 14 14 13 13 12 12 12 11 11 11 11
10 10 10 10 10 9 10 11 9 11 11 12 12 12 16 16 16 17 17 16 16 15 14 14 14 14 14 15 14 14 14 14 13 13 13 13 12 12 12 12 11 11 11 11
10 10 10 10 11 11 11 11 12 12 12 12 13 13 13 15 17 16 17 16 16 15 14 14 14 14 14 14 14 14 14 13 13 13 13 12 12 12 12 12 11 11 11 11
12 11 12 11 11 12 11 11 12 13 11 11 14 14 15 17 18 17 17 16 16 15 14 13 13 13 13 13 14 14 13 13 13 13 12 12 12 12 12 12 11 11 11 11
11 11 12 12 12 13 12 12 12 12 12 12 14 13 17 16 17 19 18 16 16 15 14 14 13 13 13 13 13 13 13 13 12 12 12 12 12 12 12 11 11 11 11 11
10 10 14 14 14 15 15 12 14 13 13 12 12 16 16 15 16 16 16 15 15 14 14 12 12 12 12 12 13 13 13 13 12 12 12 12 12 12 11 11 11 11 11 10
13 11 14 15 15 15 15 14 13 11 13 14 13 15 13 15 15 16 15 14 14 12 11 11 11 12 12 13 13 13 13 13 12 12 12 12 12 11 11 11 11 11 10 10
14 13 13 14 15 14 14 13 13 12 11 13 14 15 16 15 13 16 15 15 13 12 11 10 9 12 13 13 13 12 12 12 12 12 12 12 12 11 11 11 10 10 10 10
14 13 10 14 15 15 14 15 14 13 12 11 12 14 13 14 14 13 13 12 11 11 10 9 9 10 11 12 12 12 12 12 12 12 12 11 11 11 11 10 10 10 10 10
13 12 9 12 13 14 14 15 16 15 12 12 12 15 14 12 13 13 12 11 11 10 9 8 8 9 10 11 11 12 12 12 11 11 11 11 11 10 10 10 10 9 9 9
12 12 12 10 12 12 12 14 15 15 12 14 13 15 15 14 12 11 10 9 9 10 10 8 7 8 10 11 11 11 11 11 11 11 11 10 10 10 10 9 9 9 9 9
12 12 12 12 12 13 13 13 15 15 15 14 15 14 15 14 11 11 10 10 10 10 9 9 8 7 9 10 11 11 10 10 10 10 10 10 9 9 9 9 9 9 9 9
13 12 12 11 13 12 12 12 13 15 15 15 15 17 14 13 11 11 11 11 11 10 10 9 8 8 9 10 10 10 10 10 10 10 9 9 9 9 9 9 8 8 8 8
12 11 10 10 12 12 12 12 13 15 15 16 16 17 16 14 14 12 11 12 11 11 10 9 9 9 10 10 10 10 9 9 9 9 8 8 8 8 8 8 8 8 8 7
11 11 9 9 10 10 14 13 14 15 16 16 16 16 15 14 14 13 11 11 10 10 10 9 9 10 10 10 10 9 9 9 9 8 8 8 8 8 8 8 8 7 7 6
10 10 10 10 9 12 15 14 15 15 16 14 15 15 14 14 14 15 12 12 11 10 9 9 11 10 10 10 9 9 8 8 8 7 7 7 7 7 7 7 7 6 6 6
11 10 10 9 11 12 15 13 13 14 14 13 14 14 13 13 13 12 11 11 10 10 11 10 10 10 10 9 9 8 8 8 7 7 7 7 7 7 7 6 6 6 5 5
8 9 9 9 10 11 13 13 12 15 15 13 12 12 13 11 10 9 8 7 8 9 8 9 9 9 8 8 8 7 7 7 7 7 7 7 6 6 6 6 5 5 4 4
9 8 8 9 10 10 13 13 15 13 12 12 11 11 9 8 8 7 7 7 7 7 7 8 7 7 8 8 8 7 7 7 7 7 6 6 6 6 5 5 5 4 4 3
10 10 10 10 11 12 11 13 12 11 11 11 10 8 8 7 7 6 5 5 5 6 5 6 7 7 7 7 8 7 6 6 6 6 6 6 5 5 4 4 4 3 3 3
11 9 10 11 13 11 12 12 11 12 10 10 9 8 7 6 6 5 5 4 4 5 5 6 6 5 6 7 7 7 6 6 6 6 5 5 5 4 4 4 3 3 2 2
11 10 10 9 10 11 11 10 10 9 8 9 9 8 7 6 5 5 4 4 5 5 5 6 6 6 6 6 6 6 6 6 5 5 4 4 4 3 3 3 3 2 2 1
8 10 11 12 12 11 11 11 9 8 8 7 8 7 6 6 5 4 3 5 5 5 6 5 5 5 5 6 5 5 5 5 5 4 4 4 3 3 3 2 2 3 2 1